Location: Cerbedi�res
(48.2182°N, 1.4849°W)
Time: 00:24:18
(UTC+00:00)

Cosmos 1862 Rocket - Pass Details

Date: 03 March 2021
Orbit: 603 x 634 km, 82.5° (Epoch: 14 April)

Event Time Altitude Azimuth Distance (km) Brightness Sun altitude
Rises 18:58:53 0° 348° (NNW) 2,944 7.2 -11.7°
Reaches altitude 10° 19:01:09 10° 345° (NNW) 2,031 6.4 -12.1°
Maximum altitude 19:05:37 66° 264° (W) 695 4.0 -12.8°
Drops below altitude 10° 19:10:02 10° 183° (S) 2,009 6.2 -13.5°
Sets 19:12:16 0° 180° (S) 2,908 7.0 -13.9°
